Location: Newark
(48.3831°N, 4.1956°E)
Time: 14:16:27
(UTC+00:00)

Envisat - Pass Details

Date: 14 November 2019
Orbit: 764 x 766 km, 98.1° (Epoch: 06 December)

Event Time Altitude Azimuth Distance (km) Brightness Sun altitude
Rises 18:41:54 0° 200° (SSW) 3,221 6.5 -25.8°
Reaches altitude 10° 18:44:36 10° 214° (SSW) 2,300 5.8 -26.3°
Maximum altitude 18:48:42 24° 268° (W) 1,534 5.2 -26.9°
Drops below altitude 10° 18:52:50 10° 322° (NW) 2,313 6.0 -27.6°
Sets 18:55:34 0° 336° (NNW) 3,244 6.6 -28.1°
